Starlink 30074

operational
NORAD ID: 57508 Int'l Des: 2023-113 Owner: SPXS Country: US Constellation: starlink
LEOCIRCULAR

关于 Starlink 30074

正在加载描述...

实时位置

正在加载3D地球...

即将过境

高度历史

Altitude vs Time

uPlot chart will show altitude changes over time

两行轨道根数

1 57508U 23113P 25308.78573304 -.00003956 00000-0 -27817-3 0 9993
2 57508 43.0044 335.8295 0000862 264.2665 95.8079 15.02506471124662
Epoch: Nov 4, 2025 • Age: 8 hours

当前状态

高度 562.8 km
速度 7.59 km/s
星下点 42.61°N, 39.87°W
发射日期 Aug 7, 2023
运行时间 2.2 years
类型 internet

技术详情

分类 Payload
质量 730.00 kg
干质量 700.00 kg
总质量 730.00 kg
长度 0.30 m
直径 4.10 m
跨度 29.00 m
形状 Box + pan
制造商 SPXS
平台类型 Starlink V2M
阶段状态 In Orbit
所有者/国家 SPXS/US

大型星座

Loading constellations...